Zurück zum Katalog

COSMOS 2251 DEB

AktivLEO
NORAD 34556·DEBRIS·🇷🇺 Russia

Gestartet Jun 16, 1993 von Plesetsk Cosmodrome

Loading…

Nächste Überflüge (nächste 24 Stunden)

TLE

AktuellSource: Space-Track

Epoche: Sep 14, 2026, 13:31 UTC

1 34556U 93036US  26257.56340064  .00008464  00000-0  98270-3 0  9995
2 34556  74.0127 298.9999 0011821 298.3507 213.7779 14.85468997924156

Verfolge COSMOS 2251 DEB in Echtzeit mit AllMySat

Download on the App Store